Regional Weather Roundup
Issued by NWS

Home | Current Version | Previous Version | Graphics & Text | Print | Product List | Glossary Off
Versions: 1 2 3 4 5 6 7 8 9 10 11 12 13 14 15 16 17 18 19 20 21 22 23 24 25 26 27 28 29 30 31 32 33 34 35 36 37 38 39 40 41 42 43 44 45 46 47 48 49 50

000
ASUS43 KMKX 030100
RWRWI

WISCONSIN REGIONAL WEATHER ROUNDUP
NATIONAL WEATHER SERVICE MILWAUKEE/SULLIVAN WI
800 PM CDT TUE SEP 02 2014

NOTE: "FAIR" INDICATES FEW OR NO CLOUDS BELOW 12,000 FEET WITH NO
SIGNIFICANT WEATHER AND/OR OBSTRUCTIONS TO VISIBILITY.

WIZ001-002-006>008-014>016-023>028-030200-
NORTHWEST WISCONSIN

CITY           SKY/WX    TMP DP  RH WIND       PRES   REMARKS
SUPERIOR ARPT  PTCLDY    62  55  79 E8        29.81S
ASHLAND        CLOUDY    59  55  87 NE6       29.87S
HAYWARD        PTCLDY    64  56  75 CALM      29.86S
SIREN          CLEAR     67  53  59 SW5       29.85S
RICE LAKE      CLEAR     65  55  71 CALM      29.89R
LADYSMITH      CLEAR     67  55  66 SW5       29.90R
EAU CLAIRE     NOT AVBL
MENOMONIE      CLEAR     70  54  57 SW5       29.88S
NEW RICHMOND   CLEAR     67  54  63 SW3       29.87F
OSCEOLA        CLEAR     66  57  73 CALM      29.89S
$$

WIZ003>005-009-010-017-018-030200-
NORTH CENTRAL WISCONSIN

CITY           SKY/WX    TMP DP  RH WIND       PRES   REMARKS
WOODRUFF       CLEAR     64  52  65 CALM      29.88S
RHINELANDER    CLEAR     59  53  80 W5        29.90R
EAGLE RIVER    CLEAR     61  51  69 CALM      29.88R
LAND O LAKES   CLEAR     60  53  77 CALM      29.89R
PHILLIPS       CLEAR     65  55  69 SW3       29.88R
TOMAHAWK       CLEAR     63  54  72 CALM      29.89S
MEDFORD        CLEAR     65  54  66 CALM      29.90R
MERRILL        CLEAR     63  55  75 CALM      29.88S
$$

WIZ029-030-035-036-043>047-030200-
CENTRAL WISCONSIN

CITY           SKY/WX    TMP DP  RH WIND       PRES   REMARKS
WAUSAU         CLEAR     68  55  63 W3        29.88R
MOSINEE        CLEAR     66  57  72 W5        29.90S
MARSHFIELD     CLEAR     66  56  70 W6        29.89S
STEVENS POINT  CLEAR     67  58  72 CALM      29.89S
WAUPACA        CLEAR     70  59  66 SW3       29.89R
WAUTOMA        NOT AVBL
WISC RAPIDS    CLEAR     66  57  72 W5        29.90S
CAMP DOUGLAS   NOT AVBL
$$

WIZ011>013-019>022-031-037>040-048>050-030200-
NORTHEAST WISCONSIN

CITY           SKY/WX    TMP DP  RH WIND       PRES   REMARKS
ANTIGO         CLEAR     62  55  76 SW6       29.90R
STURGEON BAY   PTCLDY    66  59  77 SW3       29.87R
GREEN BAY      CLEAR     65  60  84 SW3       29.87R
MANITOWOC      NOT AVBL
APPLETON       PTCLDY    66  55  68 W7        29.89R
CLINTONVILLE   CLEAR     68  57  68 W3        29.87S
OSHKOSH        CLEAR     69  58  67 W3        29.88R
$$

WIZ032>034-041-042-053>061-030200-
SOUTHWEST WISCONSIN

CITY           SKY/WX    TMP DP  RH WIND       PRES   REMARKS
LA CROSSE      CLEAR     73  60  63 SW3       29.88S
SPARTA         CLEAR     67  60  76 CALM      29.90S
VIROQUA        FAIR      68  60  75 W3        29.91F
BOSCOBEL       CLEAR     68  61  78 CALM      29.91R
PRAIRIE DU CHI CLEAR     72  59  64 CALM      29.90R
PLATTEVILLE    FAIR      71  58  63 CALM      29.93R
$$

WIZ056-057-062-063-064-067-068-030200-
SOUTH CENTRAL WISCONSIN

CITY           SKY/WX    TMP DP  RH WIND       PRES   REMARKS
BARABOO/DELLS  CLEAR     69  56  63 CALM      29.91R
LONE ROCK      NOT AVBL
WATERTOWN      CLEAR     69  59  71 CALM      29.89S
MADISON        CLEAR     67  58  72 CALM      29.90R
MIDDLETON      FAIR      68  59  73 W5        29.91R
MONROE         CLEAR     72  59  64 W5        29.92R
JANESVILLE     CLEAR     72  59  64 CALM      29.90R
$$

WIZ051-052-058>065-066-070>072-030200-
SOUTHEAST WISCONSIN

CITY           SKY/WX    TMP DP  RH WIND       PRES   REMARKS
MILWAUKEE      PTCLDY    73  57  57 NW3       29.90R
WAUKESHA       CLEAR     66  57  72 W3        29.92R
MILWAUKEE/TIMM CLEAR     72  55  56 CALM      29.90R
RACINE         CLEAR     70  59  68 CALM      29.92R
BURLINGTON     CLEAR     66  58  75 CALM      29.91R
KENOSHA        CLEAR     65  60  84 W3        29.91R
FOND DU LAC    CLEAR     66  59  78 W5        29.89R
SHEBOYGAN      CLEAR     63  60  90 CALM      29.89R
WEST BEND      CLEAR     66  57  72 CALM      29.89R
JUNEAU         CLEAR     69  58  68 SW3       29.91R
$$

LSZ147-162-030200-
LAKE SUPERIOR

STATION/POSITION TIME  TEMP    WIND        PRES    WAVE
                       AIR SEA DIR/SP/G            HT/PER
                 (UTC) (F)     (DEG/KT/KT) (MB)    (FT/S)
W MID LAKE BUOY  2350   65 57  230/ 19/ 23 1007.9F   2/ 4
DEVILS ISLAND    0000   60     290/ 22/ 25 1011.1R
PORT WING        0000           10/ 15/ 23 1010.8S
SAXON HARBOR     0013   69     340/ 14/ 25 1011.5R
$$

LMZ867-665-643>646-030200-
LAKE MICHIGAN

STATION/POSITION TIME  TEMP    WIND        PRES    WAVE
                       AIR SEA DIR/SP/G            HT/PER
                 (UTC) (F)     (DEG/KT/KT) (MB)    (FT/S)
N MID LAKE BUOY  2350   67 65  220/ 12/ 14 1010.1R   2/ 3
NORTHPORT PIER   0000   71     200/  2/  4 1010.2S
SISTER BAY       2341   73     220/  9/ 10   N/A
KEWAUNEE LAKESHO 0000          180/  4/  5 1010.3F
SHEBOYGAN LAKESH 0000   69 48  180/ 10/ 11 1011.6F
ATWATER BUOY     0000   70     110/  4/  4 1012.9F
MILWAUKEE LAKESH 0000   70      60/  5/  6   N/A
S MID LAKE BUOY  2350   73 73  170/  6/  6 1011.9F   0
KENOSHA   LAKESH 0000   77     280/  6/  8 1011.5R
$$

TC  - TEMPERATURE IN CELSIUS
VSB - VISIBILITY IN STATUTE MILES
WCI - WIND CHILL INDEX
HX  - HEAT INDEX




USA.gov is the U.S. government's official web portal to all federal, state and local government web resources and services.